Belmar-Farmingdale, NJ

3:05 AM EST on December 08, 2019 (GMT -0500)
Allaire

Weather History for KBLM - November, 2019

Change the Weather History Date:

Saturday, November 16, 2019

  Actual Average Record
Temperature  
Mean Temperature 37 °F -  
Max Temperature 39 °F 51 °F 71 °F (2005)
Min Temperature 35 °F 35 °F 21 °F (1996)
Degree Days  
Heating Degree Days 28    
Moisture  
Dew Point 15 °F    
Average Humidity 42    
Maximum Humidity 64    
Minimum Humidity 30    
Precipitation  
Precipitation 0.00 in - - ()
Sea Level Pressure  
Sea Level Pressure 30.39 in    
Wind  
Wind Speed 11 mph ()    
Max Wind Speed 22 mph    
Max Gust Speed 32 mph    
Visibility 10.0 miles    
Events      
Averages and records for this station are not official NWS values.
T = Trace of Precipitation, MM = Missing Value Source: Averaged Metar Reports

Daily Weather History Graph

Daily Weather History Graph

Search for Another Location

Airport or City:

Astronomy

Nov. 16, 2019 Rise Set
Actual Time 6:42 AM EST 4:39 PM EST
Civil Twilight 6:13 AM EST 5:08 PM EST
Nautical Twilight 5:40 AM EST 5:41 PM EST
Astronomical Twilight 5:08 AM EST 6:13 PM EST
Moon 8:09 PM EST (11/16) 10:34 AM EST (11/16)
Length of Visible Light 10h 54m
Length of Day
9h 56m
Waning Gibbous, 82% of the Moon is Illuminated
Nov 16
Waning Gibbous
Nov 19
Last Quarter
Nov 26
New
Dec 4
First Quarter
Dec 12
Full

Hourly Weather History & Observations

Time (EST) Temp. Windchill Dew Point Humidity Pressure Visibility Wind Dir Wind Speed Gust Speed Precip Events Conditions
12:56 AM 39.0 °F 32.3 °F 27.0 °F 62% 30.25 in 10.0 mi NNW 10.4 mph - N/A   Clear
1:56 AM 39.0 °F 31.0 °F 24.1 °F 55% 30.25 in 10.0 mi NNW 13.8 mph - N/A   Clear
2:56 AM 37.9 °F 31.5 °F 24.1 °F 57% 30.27 in 10.0 mi North 9.2 mph - N/A   Clear
3:56 AM 36.0 °F 29.6 °F 25.0 °F 64% 30.28 in 10.0 mi NNW 8.1 mph - N/A   Clear
4:56 AM 37.9 °F 31.5 °F 26.1 °F 62% 30.30 in 10.0 mi NNE 9.2 mph - N/A   Clear
5:56 AM 37.9 °F 30.5 °F 23.0 °F 55% 30.35 in 10.0 mi North 11.5 mph 20.7 mph N/A   Partly Cloudy
6:56 AM 36.0 °F 26.7 °F 10.9 °F 36% 30.38 in 10.0 mi North 15.0 mph - N/A   Clear
7:56 AM 36.0 °F 28.5 °F 16.0 °F 44% 30.41 in 10.0 mi NNE 10.4 mph 20.7 mph N/A   Clear
8:56 AM 37.0 °F 26.2 °F 12.0 °F 36% 30.42 in 10.0 mi NNE 21.9 mph 29.9 mph N/A   Clear
9:56 AM 37.0 °F 27.0 °F 10.0 °F 33% 30.43 in 10.0 mi North 18.4 mph 26.5 mph N/A   Clear
10:56 AM 37.9 °F 27.9 °F 10.0 °F 32% 30.44 in 10.0 mi NNE 19.6 mph 32.2 mph N/A   Clear
11:56 AM 39.0 °F 29.6 °F 10.9 °F 32% 30.43 in 10.0 mi NE 18.4 mph 26.5 mph N/A   Clear
12:56 PM 39.0 °F 30.6 °F 10.9 °F 32% 30.43 in 10.0 mi NE 15.0 mph 26.5 mph N/A   Clear
1:56 PM 39.0 °F 29.6 °F 10.0 °F 30% 30.42 in 10.0 mi NE 18.4 mph 24.2 mph N/A   Clear
2:56 PM 39.0 °F 30.6 °F 10.9 °F 32% 30.43 in 10.0 mi NNE 15.0 mph 21.9 mph N/A   Clear
3:56 PM 37.9 °F 29.2 °F 10.9 °F 33% 30.42 in 10.0 mi NE 15.0 mph 19.6 mph N/A   Clear
4:56 PM 37.0 °F 30.4 °F 10.9 °F 34% 30.43 in 10.0 mi NNE 9.2 mph - N/A   Clear
5:56 PM 36.0 °F 32.1 °F 12.0 °F 37% 30.44 in 10.0 mi NNE 4.6 mph - N/A   Clear
6:56 PM 35.1 °F 30.1 °F 12.0 °F 39% 30.45 in 10.0 mi NNE 5.8 mph - N/A   Clear
7:56 PM 37.0 °F 31.0 °F 12.0 °F 36% 30.44 in 10.0 mi NNE 8.1 mph - N/A   Clear
8:56 PM 37.0 °F 30.4 °F 10.9 °F 34% 30.42 in 10.0 mi NNE 9.2 mph - N/A   Clear
9:56 PM 36.0 °F 28.5 °F 14.0 °F 41% 30.40 in 10.0 mi NNE 10.4 mph - N/A   Clear
10:56 PM 36.0 °F 28.0 °F 15.1 °F 43% 30.41 in 10.0 mi NE 11.5 mph - N/A   Clear
11:56 PM 36.0 °F 27.1 °F 16.0 °F 44% 30.41 in 10.0 mi NE 13.8 mph - N/A   Partly Cloudy